Regional Weather Roundup
Issued by NWS Portland, ME

Home | Current Version | Previous Version | Text Only | Print | Product List | Glossary On
Versions: 1 2 3 4 5 6 7 8 9 10 11 12 13 14 15 16 17 18 19 20 21 22 23 24 25 26 27 28 29 30 31 32 33 34 35 36 37 38 39 40 41 42 43 44 45 46 47 48 49 50
200
ASUS41 KGYX 182310
RWRGYX
WEATHER ROUNDUP FOR MAINE AND NEW HAMPSHIRE
NATIONAL WEATHER SERVICE GRAY ME
600 PM EST SAT NOV 18 2017

MEZ002-005-006-010-012-015-018-020-021-024-026-027-029-190000-
MAINE

CITY           SKY/WX    TMP DP  RH WIND       PRES   REMARKS
PORTLAND       CLOUDY    40  27  59 CALM      29.73F
SANFORD        MIX PCPN  35  31  85 CALM      29.71F
WISCASSET      CLOUDY    40  30  67 E3        29.74F
ROCKLAND       CLOUDY    42  32  67 SW9       29.75F
FRYEBURG       CLOUDY    37  21  52 CALM      29.69F
LEWISTONAUBURN CLOUDY    37  28  70 CALM      29.72F
AUGUSTA        CLOUDY    37  21  52 SE8       29.72F
WATERVILLE     CLOUDY    36  21  54 VRB3      29.68S
BANGOR         CLOUDY    35  20  54 SE6       29.74F
GREENVILLE     NOT AVBL
MILLINOCKET    CLOUDY    32  20  61 CALM      29.75F
HOULTON        CLOUDY    31  23  72 CALM      29.73S
PRESQUE ISLE   CLOUDY    28  22  78 SE5       29.74S
FRENCHVILLE    CLOUDY    22  19  89 NE9       29.68F
CARIBOU        CLOUDY    28  20  71 E5        29.71F
$$

NHZ002-005-008-009-011-012-014-190000-
NEW HAMPSHIRE

CITY           SKY/WX    TMP DP  RH WIND       PRES   REMARKS
PORTSMOUTH     LGT RAIN  39  31  73 CALM      29.69F
ROCHESTER      CLOUDY    37  29  72 CALM      29.70F
NASHUA         CLOUDY    38  35  89 CALM      29.68F
MANCHESTER     LGT RAIN  40  30  67 CALM      29.67F
CONCORD        CLOUDY    38  26  62 E3        29.67F
LACONIA        CLOUDY    36  24  62 CALM      29.67F
PLYMOUTH       CLOUDY    33  27  77 CALM      29.67F
BERLIN         CLOUDY    34  23  64 CALM      29.61F
WHITEFIELD     CLOUDY    33  22  63 CALM      29.60S
JAFFREY        CLOUDY    37  36  96 CALM      29.64F
KEENE          LGT RAIN  35  29  78 CALM      29.65F
LEBANON        CLOUDY    35  24  64 CALM      29.62F
MT WASHINGTON  FOG       27  27 100 SW37G48     N/A  VSB 1/16WCI   9
$$

VTZ005-007-008-190000-
VERMONT

CITY           SKY/WX    TMP DP  RH WIND       PRES   REMARKS
ST JOHNSBURY     N/A     33  22  63 MISG      29.59F
MONTPELIER     CLOUDY    34  22  61 S5        29.60F
BURLINGTON     CLOUDY    41  21  44 S8        29.54F
$$

MAZ007-012-024-CTZ003-RIZ002-NYZ038-NYZ072-190000-
SOUTHERN NEW ENGLAND AND NY

CITY           SKY/WX    TMP DP  RH WIND       PRES   REMARKS
BOSTON         LGT RAIN  45  40  82 E7        29.69F
WORCESTER      CLOUDY    39  32  76 NE3       29.65F
NANTUCKET      CLOUDY    52  50  93 S12       29.73F
PROVIDENCE     CLOUDY    53  47  79 S10       29.68F
HARTFORD       CLOUDY    36  31  82 N5        29.66S
ALBANY         CLOUDY    43  35  73 S14G24    29.57F
NEW YORK CITY  LGT RAIN  50  43  77 CALM      29.63F
$$

ANZ081-ANZ082-ANZ150-NHZ014-MEZ023>029-190000-
COASTAL MARINE OBSERVATIONS

STATION/POSITION TIME  TEMP    WIND        PRES    WAVE
                       AIR SEA DIR/SP/G            HT/PER
                 (UTC) (F)     (DEG/KT/KT) (MB)    (FT/S)
MOUNT DESERT ROC 2300   45     160/ 17/ 18 1008.0F
MATINICUS ROCK   2300   45     210/ 20/ 22 1007.1F
ISLE OF SHOALS   2300   46     150/ 15/ 16 1005.5F
JEFFREYS LEDGE   2206      52                N/A     2/ 4
GEORGES BANK BUO 2150   51 54              1011.1    6/ 7
$$

.............KEY..............
   WCI - WIND CHILL
   TC  - TEMPERATURE IN CELSIUS
   VSB - VISIBILITY IN MILES
   HX  - HEAT INDEX
   FAIR- INDICATES FEW OR NO CLOUDS BELOW 12,000 FT, WITH NO
         SIGNIFICANT WEATHER AND/OR OBSTRUCTIONS TO VISIBILITY.






USA.gov is the U.S. government's official web portal to all federal, state and local government web resources and services.